• Join FlightAware (Why Join?)
  • Login
  • US Flag 
10:01AM EST


 

Airport Tracker/Info


-or-


 

Live Flight TrackerFlight Track Log ✈ OPT438 ✈ 21-Feb-2014 ✈ KCHS - KTPA

Flight Track Log - Related Links

Times and Time Zones

All times are in EST time to prevent confusion due to time zone crossing. See the OPT438 flight status page for this flight to view local times or setup timezone preferences in your user account.

Time Position Orientation Groundspeed Altitude Reporting Facility
EST Latitude Longitude Course Direction KTS MPH feet Rate Location/Type
02:29PM 32.7600 -80.0986 200° South 224 258 8,200  Level Jacksonville Center
02:30PM 32.6936 -80.1278 200° South 235 270 11,300 2,800 Climbing Jacksonville Center
02:31PM 32.6342 -80.1792 216° Southwest 248 285 13,800 2,500 Climbing Jacksonville Center
02:32PM 32.5644 -80.2331 213° Southwest 280 322 16,300 2,500 Climbing Jacksonville Center
02:33PM 32.4947 -80.2867 213° Southwest 296 341 18,800 2,450 Climbing Jacksonville Center
02:34PM 32.4269 -80.3403 214° Southwest 301 346 21,200 2,200 Climbing Jacksonville Center
02:35PM 32.3631 -80.3889 213° Southwest 295 339 23,200 1,600 Climbing Jacksonville Center
02:36PM 32.3017 -80.4494 220° Southwest 295 339 24,400 1,100 Climbing Jacksonville Center
02:37PM 32.2444 -80.5197 226° Southwest 295 339 25,400 1,050 Climbing Jacksonville Center
02:38PM 32.1853 -80.5925 226° Southwest 301 346 26,500 1,150 Climbing Jacksonville Center
02:39PM 32.1181 -80.6775 227° Southwest 314 361 27,700 1,100 Climbing Jacksonville Center
02:40PM 32.0606 -80.7428 224° Southwest 319 367 28,700 1,100 Climbing Jacksonville Center
02:41PM 31.9931 -80.8250 226° Southwest 324 373 29,900 1,100 Climbing Jacksonville Center
02:42PM 31.9358 -80.8925 225° Southwest 329 379 30,900 1,100 Climbing Jacksonville Center
02:43PM 31.8661 -80.9747 225° Southwest 324 373 32,100 1,050 Climbing Jacksonville Center
02:44PM 31.8044 -81.0469 225° Southwest 324 373 33,000 950 Climbing Jacksonville Center
02:45PM 31.7489 -81.1117 225° Southwest 324 373 34,000 500 Climbing Jacksonville Center
02:46PM 31.6769 -81.1958 225° Southwest 324 373 34,000  Level Jacksonville Center
02:48PM 31.5453 -81.3494 225° Southwest 354 407 34,000  Level Jacksonville Center
02:49PM 31.4733 -81.4358 226° Southwest 343 395 34,000  Level Jacksonville Center
02:50PM 31.4053 -81.5150 225° Southwest 337 388 34,000  Level Jacksonville Center
02:51PM 31.3414 -81.5911 226° Southwest 337 388 34,000  Level Jacksonville Center
02:52PM 31.2733 -81.6675 224° Southwest 335 386 34,000  Level Jacksonville Center
02:53PM 31.2072 -81.7461 225° Southwest 340 391 34,000  Level Jacksonville Center
02:54PM 31.1453 -81.8172 225° Southwest 346 398 34,000  Level Jacksonville Center
02:55PM 31.0750 -81.9031 226° Southwest 351 404 34,000  Level Jacksonville Center
02:56PM 31.0022 -81.9764 221° Southwest 351 404 34,000 -200 Level Jacksonville Center
02:57PM 30.9086 -82.0136 199° South 351 404 33,600 -750 Descending Jacksonville Center
02:58PM 30.8086 -82.0411 193° South 361 415 32,500 -1,050 Descending Jacksonville Center
02:59PM 30.7106 -82.0661 192° South 366 421 31,500 -1,000 Descending Jacksonville Center
03:00PM 30.6106 -82.0936 193° South 366 421 30,500 -750 Descending Jacksonville Center
03:01PM 30.5042 -82.1161 190° South 366 421 30,000 -350 Descending Jacksonville Center
03:02PM 30.4000 -82.1436 193° South 379 436 29,800 -600 Descending Jacksonville Center
03:03PM 30.2917 -82.1708 192° South 393 452 28,800 -1,050 Descending Jacksonville Center
03:04PM 30.1875 -82.2006 194° South 393 452 27,700 -1,050 Descending Jacksonville Center
03:05PM 30.0789 -82.2278 192° South 387 445 26,700 -950 Descending Jacksonville Center
03:06PM 29.9831 -82.2572 195° South 392 451 25,800 -950 Descending Jacksonville Center
03:07PM 29.8747 -82.2867 193° South 392 451 24,800 -900 Descending Jacksonville Center
03:08PM 29.7558 -82.3111 190° South 392 451 24,000 -400 Descending Jacksonville Center
03:09PM 29.6619 -82.3381 194° South 392 451 24,000  Level Jacksonville Center
03:10PM 29.5533 -82.3556 188° South 392 451 24,000 -350 Level Jacksonville Center
03:11PM 29.4406 -82.3417 174° South 392 451 23,300 -1,000 Descending Jacksonville Center
03:12PM 29.3300 -82.3422 180° South 398 458 22,000 -1,200 Descending Jacksonville Center
03:13PM 29.2217 -82.3547 186° South 398 458 20,900 -1,100 Descending Jacksonville Center
03:14PM 29.1172 -82.3650 185° South 398 458 19,800 -1,150 Descending Jacksonville Center
03:15PM 29.0086 -82.3536 175° South 388 447 18,600 -1,150 Descending Jacksonville Center
03:16PM 28.8936 -82.3164 164° South 383 441 17,500 -1,050 Descending Jacksonville Center
03:17PM 28.8058 -82.2861 163° South 368 423 16,500 -1,364 Descending Jacksonville Center
03:19PM 28.6167 -82.2500 170° South 251 289 13,000 -1,156 Descending Tampa TRACON
03:20PM 28.5500 -82.2500 180° South 247 284 12,800 -667 Descending Tampa TRACON
03:21PM 28.4833 -82.2500 180° South 268 308 11,800 -1,368 Descending Tampa TRACON
03:22PM 28.4167 -82.2500 180° South 264 304 10,200 -1,800 Descending Tampa TRACON
03:23PM 28.3500 -82.2833 204° Southwest 257 296 8,200 -2,050 Descending Tampa TRACON
03:24PM 28.2833 -82.3167 204° Southwest 269 310 6,100 -1,600 Descending Tampa TRACON
03:25PM 28.2667 -82.3833 254° West 209 241 5,000 -1,000 Descending Tampa TRACON
03:26PM 28.2500 -82.4500 254° West 205 236 4,000 -1,000 Descending Tampa TRACON
03:27PM 28.2167 -82.4833 221° Southwest 197 227 3,000 -500 Descending Tampa TRACON
03:28PM 28.1667 -82.5167 210° Southwest 168 193 3,000 -143 Level Tampa TRACON
03:29PM 28.1167 -82.5167 180° South 181 208 2,700 -368 Descending Tampa TRACON
03:30PM 28.0833 -82.5167 180° South 166 191 2,300 158 Descending Tampa TRACON
03:31PM 28.1000 -82.4500 74° East 249 287 3,000 350 Climbing Tampa TRACON
03:32PM 28.1500 -82.4167 30° Northeast 236 272 3,000  Level Tampa TRACON
03:33PM 28.2000 -82.4333 344° North 209 241 3,000  Level Tampa TRACON
03:34PM 28.2000 -82.4833 270° West 156 180 3,000  Level Tampa TRACON
03:35PM 28.1667 -82.5167 221° Southwest 168 193 3,000 -150 Level Tampa TRACON
03:36PM 28.1333 -82.5167 180° South 181 208 2,700 -550 Descending Tampa TRACON
03:37PM 28.0833 -82.5333 196° South 169 194 1,900 -850 Descending Tampa TRACON
03:38PM 28.0333 -82.5333 180° South 152 175 1,000 -750 Descending Tampa TRACON
03:39PM 28.0000 -82.5333 180° South 114 131 400 -600 Descending Tampa TRACON